Flag for USA

Past Weather in Poughkeepsie, New York, USA — Yesterday and Last 2 Weeks

Now
58 °F

Fog.


Feels Like: 58 °F
Forecast: 71 / 57 °F
Wind: No wind

Location: Dutchess County Airport
Current Time: Oct 21, 2020 at 8:53:35 am
Latest Report: Oct 21, 2020 at 7:53 am
Visibility: 0 mi
Pressure30.27 "Hg
Humidity: 97%
Dew Point: 57 °F
Location of PoughkeepsieLocation

Past Weather in Poughkeepsie — Graph

°F

Poughkeepsie Temperature Yesterday

Maximum temperature yesterday: 70 °F (at 3:53 pm)
Minimum temperature yesterday: 52 °F (at 3:53 am)
Average temperature yesterday: 60 °F

High & Low Weather Summary for the Past Weeks

 TemperatureHumidityPressure
High76 °F (Oct 10, 1:53 pm)100% (Oct 17, 8:06 am)30.49 "Hg (Oct 17, 8:06 am)
Low31 °F (Oct 18, 5:53 am)30% (Oct 17, 3:53 pm)29.55 "Hg (Oct 7, 1:53 pm)
Average55 °F77%30.07 "Hg
* Reported Oct 6 7:17 am — Oct 21 7:53 am, Poughkeepsie. Weather by CustomWeather, © 2020

Note: Actual official high and low records may vary slightly from our data, if they occured in-between our weather recording intervals... More about our weather records

Poughkeepsie Weather History for the Previous 24 Hours

Scroll right to see more
 ConditionsComfort  
Time TempWeatherWind HumidityBarometerVisibility
7:53 am
Wed, Oct 21
58 °FFog.No wind97%30.27 "Hg1 mi
7:26 am58 °FFog.No wind97%30.28 "Hg2 mi
7:10 am58 °FFog.No wind97%30.27 "Hg2 mi
6:53 am58 °FFog.No wind97%30.26 "Hg4 mi
6:36 am59 °FFog.No wind93%30.26 "Hg4 mi
6:18 am59 °FFog.No wind93%30.26 "Hg2 mi
5:53 am59 °FFog.No wind93%30.24 "Hg4 mi
5:28 am59 °FFog.No wind93%30.25 "Hg2 mi
4:53 am59 °FFog.No wind93%30.23 "Hg2 mi
3:53 am59 °FFog.No wind96%30.23 "Hg2 mi
3:22 am59 °FLow clouds.No wind93%30.24 "Hg10 mi
2:53 am59 °FLow clouds.No wind93%30.24 "Hg10 mi
1:53 am58 °FLow clouds.No wind93%30.24 "Hg10 mi
1:23 am56 °FLow clouds.No wind97%30.26 "Hg10 mi
1:06 am56 °FFog.No wind97%30.26 "Hg2 mi
1:01 am56 °FFog.No wind97%30.26 "Hg1 mi
12:19 am56 °FFog.No wind97%30.25 "Hg6 mi
11:53 pm
Tue, Oct 20
55 °FFog.No wind96%30.24 "Hg6 mi
11:02 pm59 °FPassing clouds.No wind93%30.25 "Hg10 mi
10:43 pm58 °FFog.No wind97%30.26 "Hg2 mi
9:53 pm59 °FClear.No wind93%30.24 "Hg10 mi
8:53 pm60 °FClear.No wind93%30.22 "Hg10 mi
7:53 pm61 °FClear.No wind90%30.22 "Hg10 mi
6:53 pm64 °FClear.No wind90%30.20 "Hg10 mi
5:53 pm66 °FSunny.No wind84%30.18 "Hg10 mi
4:53 pm69 °FSunny.No wind76%30.18 "Hg10 mi
3:53 pm70 °FSunny.3 mph71%30.18 "Hg10 mi
2:53 pm69 °FScattered clouds.No wind73%30.19 "Hg10 mi
2:00 pm68 °FScattered clouds.5 mph76%30.21 "Hg10 mi
12:53 pm66 °FMostly cloudy.3 mph78%30.22 "Hg10 mi
11:53 am65 °FOvercast.5 mph81%30.22 "Hg10 mi
10:53 am62 °FFog.No wind90%30.22 "Hg4 mi
9:53 am60 °FLow clouds.3 mph90%30.22 "Hg10 mi
9:13 am59 °FLow clouds.No wind90%30.24 "Hg10 mi
8:53 am57 °FOvercast.No wind90%30.23 "Hg10 mi
Weather by CustomWeather, © 2020

See weather overview